SKW5633 KLEX-KORD

Flight info

Callsign SKW5633
Flight time 0h 50m
Altitude 26000
Route BONNT VEECK5
Aircraft CRJ7/M-SDFGIRWY/S

Departure

Time 2026-04-24 04:47
Airport Blue Grass Airport (KLEX)

Arrival

Time 2026-04-24 05:37
Airport Chicago O'Hare International Airport (KORD)
Time Latitude Longitude Altitude Speed Heading
2026-04-24 04:25 38.03737 -84.59986 951 ft 0 kts 65°
2026-04-24 04:40 38.03736 -84.59988 950 ft 2 kts 65°
2026-04-24 04:40 38.03724 -84.60017 950 ft 4 kts 60°
2026-04-24 04:40 38.03718 -84.60042 950 ft 4 kts 71°
2026-04-24 04:40 38.03722 -84.60049 950 ft 4 kts 33°
2026-04-24 04:41 38.03702 -84.60058 950 ft 4 kts 341°
2026-04-24 04:41 38.03693 -84.60045 950 ft 4 kts 301°
2026-04-24 04:41 38.03676 -84.60026 950 ft 1 kts 337°
2026-04-24 04:41 38.03674 -84.60025 950 ft 0 kts 337°
2026-04-24 04:44 38.03696 -84.60038 950 ft 8 kts 333°
2026-04-24 04:44 38.03730 -84.60120 949 ft 13 kts 277°
2026-04-24 04:44 38.03714 -84.60203 948 ft 2 kts 206°
2026-04-24 04:44 38.03699 -84.60197 948 ft 3 kts 123°
2026-04-24 04:45 38.03710 -84.60166 948 ft 11 kts 40°
2026-04-24 04:45 38.03786 -84.60095 949 ft 14 kts 35°
2026-04-24 04:45 38.03862 -84.60022 951 ft 14 kts 41°
2026-04-24 04:45 38.03945 -84.60001 952 ft 12 kts 20°
2026-04-24 04:46 38.04011 -84.59934 953 ft 12 kts 41°
2026-04-24 04:46 38.04075 -84.59863 953 ft 12 kts 40°
2026-04-24 04:46 38.04147 -84.59836 955 ft 12 kts 323°
2026-04-24 04:46 38.04175 -84.59934 956 ft 17 kts 238°
2026-04-24 04:47 38.03993 -84.60143 950 ft 64 kts 221°
2026-04-24 04:47 38.03497 -84.60697 942 ft 124 kts 221°
2026-04-24 04:47 38.02731 -84.61529 1029 ft 157 kts 220°
2026-04-24 04:47 38.01915 -84.62444 1591 ft 154 kts 221°
2026-04-24 04:48 38.01228 -84.63591 1860 ft 186 kts 249°
2026-04-24 04:48 38.01373 -84.65245 2484 ft 197 kts 296°
2026-04-24 04:48 38.02401 -84.66417 3207 ft 212 kts 336°
2026-04-24 04:48 38.03890 -84.66438 3880 ft 224 kts 20°
2026-04-24 04:49 38.05263 -84.65485 4598 ft 227 kts 30°
2026-04-24 04:49 38.06659 -84.64523 5324 ft 229 kts 25°
2026-04-24 04:49 38.08148 -84.63739 6030 ft 232 kts 15°
2026-04-24 04:49 38.09725 -84.63329 6720 ft 232 kts
2026-04-24 04:50 38.11334 -84.63338 7386 ft 231 kts 349°
2026-04-24 04:50 38.12884 -84.63734 8048 ft 230 kts 340°
2026-04-24 04:50 38.14410 -84.64371 8710 ft 231 kts 336°
2026-04-24 04:50 38.15928 -84.65080 9361 ft 234 kts 336°
2026-04-24 04:51 38.17464 -84.65803 10006 ft 236 kts 336°
2026-04-24 04:51 38.19016 -84.66516 10546 ft 241 kts 337°
2026-04-24 04:51 38.20704 -84.67253 10621 ft 271 kts 339°
2026-04-24 04:51 38.22588 -84.68041 10691 ft 298 kts 339°
2026-04-24 04:52 38.24637 -84.68897 10900 ft 319 kts 339°
2026-04-24 04:52 38.26805 -84.69808 11191 ft 337 kts 340°
2026-04-24 04:52 38.29078 -84.70771 11566 ft 349 kts 340°
2026-04-24 04:52 38.31395 -84.71754 12252 ft 352 kts 340°
2026-04-24 04:53 38.33725 -84.72752 12973 ft 354 kts 340°
2026-04-24 04:53 38.36067 -84.73756 13686 ft 356 kts 340°
2026-04-24 04:53 38.38430 -84.74766 14320 ft 359 kts 340°
2026-04-24 04:53 38.40777 -84.75764 14925 ft 362 kts 340°
2026-04-24 04:54 38.43204 -84.76796 15531 ft 364 kts 340°
2026-04-24 04:54 38.45612 -84.77830 16107 ft 367 kts 340°
2026-04-24 04:54 38.48042 -84.78873 16685 ft 370 kts 340°
2026-04-24 04:54 38.50455 -84.79913 17237 ft 372 kts 340°
2026-04-24 04:55 38.52920 -84.80971 17780 ft 375 kts 340°
2026-04-24 04:55 38.55405 -84.82038 18307 ft 377 kts 339°
2026-04-24 04:55 38.57903 -84.83115 18753 ft 380 kts 339°
2026-04-24 04:55 38.60425 -84.84200 19199 ft 383 kts 339°
2026-04-24 04:56 38.62959 -84.85292 19647 ft 386 kts 339°
2026-04-24 04:56 38.65514 -84.86392 20080 ft 389 kts 339°
2026-04-24 04:56 38.68090 -84.87501 20510 ft 391 kts 339°
2026-04-24 04:56 38.70652 -84.88611 20917 ft 394 kts 339°
2026-04-24 04:57 38.73260 -84.89741 21313 ft 397 kts 339°
2026-04-24 04:57 38.75885 -84.90875 21701 ft 400 kts 339°
2026-04-24 04:57 38.78532 -84.92019 22106 ft 402 kts 339°
2026-04-24 04:57 38.81186 -84.93167 22504 ft 404 kts 339°
2026-04-24 04:58 38.83860 -84.94325 22874 ft 407 kts 339°
2026-04-24 04:58 38.86551 -84.95496 23229 ft 409 kts 338°
2026-04-24 04:58 38.89258 -84.96674 23566 ft 412 kts 338°
2026-04-24 04:58 38.91979 -84.97855 23877 ft 414 kts 338°
2026-04-24 04:59 38.94711 -84.99042 24186 ft 415 kts 338°
2026-04-24 04:59 38.97460 -85.00237 24494 ft 417 kts 338°
2026-04-24 04:59 39.00212 -85.01434 24790 ft 419 kts 338°
2026-04-24 04:59 39.02978 -85.02641 25101 ft 420 kts 338°
2026-04-24 05:00 39.05752 -85.03854 25381 ft 422 kts 338°
2026-04-24 05:00 39.08537 -85.05070 25648 ft 424 kts 338°
2026-04-24 05:00 39.11344 -85.06299 25806 ft 428 kts 338°
2026-04-24 05:00 39.14185 -85.07545 25882 ft 435 kts 338°
2026-04-24 05:01 39.17078 -85.08816 25920 ft 442 kts 338°
2026-04-24 05:01 39.20021 -85.10104 25935 ft 449 kts 338°
2026-04-24 05:01 39.22963 -85.11391 25952 ft 456 kts 338°
2026-04-24 05:01 39.25987 -85.12716 25968 ft 463 kts 338°
2026-04-24 05:02 39.29060 -85.14071 25964 ft 469 kts 338°
2026-04-24 05:02 39.32164 -85.15435 25966 ft 472 kts 338°
2026-04-24 05:02 39.35282 -85.16805 25967 ft 473 kts 338°
2026-04-24 05:02 39.38400 -85.18177 25925 ft 474 kts 338°
2026-04-24 05:03 39.41524 -85.19552 25930 ft 474 kts 338°
2026-04-24 05:03 39.44640 -85.20928 25927 ft 472 kts 338°
2026-04-24 05:03 39.47739 -85.22298 25924 ft 469 kts 338°
2026-04-24 05:03 39.50828 -85.23664 25926 ft 468 kts 338°
2026-04-24 05:04 39.53906 -85.25022 25922 ft 466 kts 338°
2026-04-24 05:04 39.56975 -85.26377 25920 ft 466 kts 339°
2026-04-24 05:04 39.60044 -85.27730 25909 ft 465 kts 339°
2026-04-24 05:04 39.63106 -85.29090 25907 ft 464 kts 338°
2026-04-24 05:05 39.66164 -85.30444 25912 ft 464 kts 338°
2026-04-24 05:05 39.69216 -85.31803 25930 ft 464 kts 338°
2026-04-24 05:05 39.72274 -85.33162 25942 ft 465 kts 339°
2026-04-24 05:05 39.75342 -85.34529 25941 ft 467 kts 339°
2026-04-24 05:06 39.78416 -85.35896 25944 ft 468 kts 339°
2026-04-24 05:06 39.81500 -85.37271 25943 ft 469 kts 339°
2026-04-24 05:06 39.84591 -85.38650 25944 ft 470 kts 339°
2026-04-24 05:06 39.87689 -85.40035 25943 ft 471 kts 339°
2026-04-24 05:07 39.90791 -85.41426 25943 ft 472 kts 339°
2026-04-24 05:07 39.93901 -85.42819 25942 ft 473 kts 339°
2026-04-24 05:07 39.97004 -85.44218 25941 ft 471 kts 339°
2026-04-24 05:07 40.00100 -85.45600 25932 ft 470 kts 339°
2026-04-24 05:08 40.03190 -85.46987 25924 ft 468 kts 339°
2026-04-24 05:08 40.06267 -85.48366 25917 ft 467 kts 339°
2026-04-24 05:08 40.09298 -85.49733 25933 ft 466 kts 339°
2026-04-24 05:08 40.12364 -85.51114 25932 ft 466 kts 339°
2026-04-24 05:09 40.15436 -85.52496 25932 ft 466 kts 339°
2026-04-24 05:09 40.18514 -85.53888 25936 ft 466 kts 339°
2026-04-24 05:09 40.21585 -85.55272 25929 ft 466 kts 339°
2026-04-24 05:09 40.24649 -85.56660 25925 ft 465 kts 339°
2026-04-24 05:10 40.27705 -85.58041 25923 ft 464 kts 339°
2026-04-24 05:10 40.30753 -85.59421 25921 ft 463 kts 339°
2026-04-24 05:10 40.33795 -85.60801 25916 ft 462 kts 339°
2026-04-24 05:10 40.36831 -85.62179 25916 ft 461 kts 339°
2026-04-24 05:11 40.39818 -85.63537 25928 ft 460 kts 339°
2026-04-24 05:11 40.42841 -85.64917 25925 ft 460 kts 339°
2026-04-24 05:11 40.45866 -85.66288 25923 ft 459 kts 339°
2026-04-24 05:11 40.48888 -85.67650 25922 ft 459 kts 340°
2026-04-24 05:12 40.51925 -85.68938 25922 ft 458 kts 341°
2026-04-24 05:12 40.54990 -85.70089 25922 ft 458 kts 343°
2026-04-24 05:12 40.58072 -85.71179 25921 ft 458 kts 343°
2026-04-24 05:12 40.61146 -85.72277 25918 ft 457 kts 343°
2026-04-24 05:13 40.67275 -85.74496 25905 ft 457 kts 342°
2026-04-24 05:13 40.70332 -85.75630 25898 ft 456 kts 342°
2026-04-24 05:13 40.73387 -85.76765 25892 ft 456 kts 343°
2026-04-24 05:14 40.76450 -85.77896 25889 ft 456 kts 343°
2026-04-24 05:14 40.79506 -85.79026 25890 ft 456 kts 342°
2026-04-24 05:14 40.82402 -85.80669 25886 ft 452 kts 326°
2026-04-24 05:14 40.84792 -85.83337 25890 ft 449 kts 313°
2026-04-24 05:15 40.86860 -85.86429 25885 ft 449 kts 309°
2026-04-24 05:15 40.88787 -85.89615 25874 ft 449 kts 307°
2026-04-24 05:15 40.90564 -85.92999 25875 ft 448 kts 298°
2026-04-24 05:15 40.91838 -85.96754 25881 ft 448 kts 291°
2026-04-24 05:16 40.92945 -86.00607 25882 ft 448 kts 290°
2026-04-24 05:16 40.94061 -86.04459 25883 ft 449 kts 291°
2026-04-24 05:16 40.95261 -86.08284 25885 ft 449 kts 293°
2026-04-24 05:16 40.96516 -86.12081 25886 ft 450 kts 293°
2026-04-24 05:17 40.97735 -86.15836 25889 ft 450 kts 293°
2026-04-24 05:17 40.98962 -86.19652 25886 ft 451 kts 293°
2026-04-24 05:17 41.00191 -86.23470 25887 ft 451 kts 293°
2026-04-24 05:17 41.01424 -86.27296 25856 ft 451 kts 293°
2026-04-24 05:18 41.02653 -86.31129 25858 ft 452 kts 293°
2026-04-24 05:18 41.03884 -86.34957 25855 ft 452 kts 293°
2026-04-24 05:18 41.05115 -86.38796 25856 ft 452 kts 293°
2026-04-24 05:18 41.06344 -86.42643 25857 ft 453 kts 292°
2026-04-24 05:19 41.07573 -86.46486 25859 ft 453 kts 292°
2026-04-24 05:19 41.08798 -86.50331 25862 ft 454 kts 292°
2026-04-24 05:19 41.10027 -86.54187 25861 ft 454 kts 292°
2026-04-24 05:19 41.11238 -86.57990 25858 ft 454 kts 292°
2026-04-24 05:20 41.12477 -86.61835 25859 ft 453 kts 294°
2026-04-24 05:20 41.13892 -86.65540 25857 ft 445 kts 298°
2026-04-24 05:20 41.15429 -86.69042 25856 ft 434 kts 300°
2026-04-24 05:20 41.16953 -86.72462 25827 ft 427 kts 300°
2026-04-24 05:21 41.18436 -86.75892 25245 ft 428 kts 298°
2026-04-24 05:21 41.19874 -86.79344 24705 ft 426 kts 298°
2026-04-24 05:21 41.21304 -86.82775 24170 ft 423 kts 298°
2026-04-24 05:21 41.22727 -86.86180 23649 ft 420 kts 298°
2026-04-24 05:22 41.24142 -86.89572 23081 ft 418 kts 298°
2026-04-24 05:22 41.25548 -86.92950 22481 ft 417 kts 298°
2026-04-24 05:22 41.26947 -86.96307 21876 ft 415 kts 298°
2026-04-24 05:22 41.28333 -86.99658 21313 ft 413 kts 298°
2026-04-24 05:23 41.29713 -87.02996 20756 ft 411 kts 298°
2026-04-24 05:23 41.31092 -87.06319 20205 ft 409 kts 297°
2026-04-24 05:23 41.32465 -87.09627 19668 ft 408 kts 297°
2026-04-24 05:23 41.33828 -87.12932 19133 ft 405 kts 297°
2026-04-24 05:24 41.35172 -87.16184 18630 ft 396 kts 297°
2026-04-24 05:24 41.36589 -87.19276 18134 ft 389 kts 307°
2026-04-24 05:24 41.38411 -87.21901 17582 ft 383 kts 315°
2026-04-24 05:24 41.40381 -87.24235 17049 ft 386 kts 317°
2026-04-24 05:25 41.42439 -87.26560 16514 ft 387 kts 318°
2026-04-24 05:25 41.44492 -87.28883 15997 ft 387 kts 317°
2026-04-24 05:25 41.46508 -87.31252 15490 ft 386 kts 316°
2026-04-24 05:25 41.48502 -87.33639 15006 ft 385 kts 316°
2026-04-24 05:26 41.50504 -87.36011 14513 ft 384 kts 317°
2026-04-24 05:26 41.52632 -87.38165 14034 ft 384 kts 323°
2026-04-24 05:26 41.54864 -87.40113 13548 ft 380 kts 325°
2026-04-24 05:26 41.57045 -87.41958 13043 ft 372 kts 325°
2026-04-24 05:27 41.59200 -87.43810 12528 ft 362 kts 324°
2026-04-24 05:27 41.61262 -87.45648 12034 ft 350 kts 323°
2026-04-24 05:27 41.63260 -87.47438 11562 ft 340 kts 323°
2026-04-24 05:27 41.65185 -87.49164 11109 ft 327 kts 323°
2026-04-24 05:28 41.66964 -87.50965 10671 ft 314 kts 317°
2026-04-24 05:28 41.68575 -87.52837 10391 ft 300 kts 315°
2026-04-24 05:28 41.70108 -87.54655 10061 ft 291 kts 315°
2026-04-24 05:28 41.71619 -87.56413 9666 ft 285 kts 316°
2026-04-24 05:29 41.73166 -87.58044 9226 ft 283 kts 328°
2026-04-24 05:29 41.75003 -87.58974 8833 ft 282 kts 342°
2026-04-24 05:29 41.76918 -87.59503 8432 ft 279 kts 347°
2026-04-24 05:29 41.78830 -87.59932 8046 ft 276 kts 347°
2026-04-24 05:30 41.80075 -87.60210 7796 ft 273 kts 346°
2026-04-24 05:30 41.82598 -87.60855 7309 ft 279 kts 343°
2026-04-24 05:30 41.83859 -87.61219 7063 ft 281 kts 343°
2026-04-24 05:30 41.86400 -87.61926 6570 ft 280 kts 343°
2026-04-24 05:31 41.87679 -87.62279 6327 ft 276 kts 342°
2026-04-24 05:31 41.90137 -87.62970 5837 ft 269 kts 342°
2026-04-24 05:31 41.91372 -87.63315 5595 ft 267 kts 342°
2026-04-24 05:31 41.93182 -87.63813 5231 ft 260 kts 342°
2026-04-24 05:32 41.94892 -87.64282 4909 ft 242 kts 341°
2026-04-24 05:32 41.96479 -87.64731 4565 ft 232 kts 340°
2026-04-24 05:32 41.97819 -87.65646 4190 ft 203 kts 301°
2026-04-24 05:32 41.98315 -87.67144 3949 ft 155 kts 269°
2026-04-24 05:33 41.98397 -87.68429 3759 ft 131 kts 256°
2026-04-24 05:33 41.98369 -87.69635 3596 ft 126 kts 255°
2026-04-24 05:33 41.98348 -87.70804 3430 ft 127 kts 255°
2026-04-24 05:34 41.98322 -87.73277 3100 ft 135 kts 256°
2026-04-24 05:34 41.98318 -87.74535 2920 ft 133 kts 256°
2026-04-24 05:34 41.98321 -87.75774 2730 ft 132 kts 256°
2026-04-24 05:34 41.98323 -87.77010 2509 ft 132 kts 255°
2026-04-24 05:35 41.98329 -87.78237 2333 ft 128 kts 255°
2026-04-24 05:35 41.98335 -87.79430 2179 ft 128 kts 254°
2026-04-24 05:35 41.98344 -87.80636 1960 ft 133 kts 259°
2026-04-24 05:35 41.98383 -87.81888 1766 ft 135 kts 261°
2026-04-24 05:36 41.98410 -87.83171 1519 ft 141 kts 265°
2026-04-24 05:36 41.98390 -87.84503 1333 ft 144 kts 267°
2026-04-24 05:36 41.98376 -87.85903 1142 ft 154 kts 266°
2026-04-24 05:36 41.98394 -87.87323 952 ft 154 kts 265°
2026-04-24 05:37 41.98393 -87.88723 740 ft 145 kts 265°
2026-04-24 05:37 41.98390 -87.89978 669 ft 116 kts 267°
2026-04-24 05:37 41.98388 -87.90831 665 ft 70 kts 270°
2026-04-24 05:37 41.98388 -87.91326 669 ft 34 kts 269°
2026-04-24 05:38 41.98389 -87.91550 670 ft 21 kts 270°
2026-04-24 05:38 41.98327 -87.91610 669 ft 13 kts 181°
2026-04-24 05:38 41.98297 -87.91604 668 ft 0 kts 157°
2026-04-24 05:39 41.98297 -87.91603 668 ft 1 kts 157°
2026-04-24 05:40 41.98275 -87.91581 668 ft 8 kts 132°
2026-04-24 05:40 41.98226 -87.91479 668 ft 14 kts 122°
2026-04-24 05:40 41.98176 -87.91372 669 ft 15 kts 121°
2026-04-24 05:40 41.98131 -87.91263 667 ft 10 kts 95°
2026-04-24 05:41 41.98190 -87.91171 667 ft 17 kts 44°
2026-04-24 05:41 41.98267 -87.91029 667 ft 19 kts 59°
2026-04-24 05:41 41.98288 -87.90864 667 ft 19 kts 90°
2026-04-24 05:41 41.98288 -87.90691 666 ft 15 kts 90°
2026-04-24 05:42 41.98288 -87.90550 666 ft 15 kts 90°
2026-04-24 05:42 41.98276 -87.90472 666 ft 6 kts 136°
2026-04-24 05:42 41.98268 -87.90461 666 ft 0 kts 136°
2026-04-24 05:42 41.98266 -87.90458 666 ft 0 kts 110°
2026-04-24 05:43 41.98263 -87.90431 667 ft 3 kts 114°
2026-04-24 05:43 41.98252 -87.90420 667 ft 3 kts 160°
2026-04-24 05:43 41.98229 -87.90417 667 ft 3 kts 178°
2026-04-24 05:43 41.98210 -87.90417 667 ft 3 kts 180°
2026-04-24 05:44 41.98204 -87.90417 667 ft 0 kts 180°